LEGION 3

Last updated on Thu Nov 21 2024 00:02:28 GMT+0000 (Coordinated Universal Time)

1 60452U 24146A 24325.23681257 .00025834 00000+0 63942-3 0 9992 2 60452 44.9989 230.8355 0028020 170.1899 189.9541 15.39633542 14895
UTC large
Height (km)
Speed (km/s)
/
Latitude / Longitude
Inclination (degrees)
Orbital Period (minutes)
Azimuth
Elevation
Range (km)
Doppler Factor

Next 0 passes for location: London (51.5072 / 0.1276)

Sorry there are no passes over London.